Location: Unspecified
(41.1850°N, 73.2650°W)
Time: 03:26:00
(UTC+00:00)

SL-08 R/B - Pass Details

Date: 16 March 2026
Orbit: 946 x 992 km, 83.0° (Epoch: 13 April)

Event Time Altitude Azimuth Distance (km) Brightness Sun altitude
Exits shadow 02:48:16 29° 297° (WNW) 1,676 6.1 -40.4°
Drops below altitude 10° 02:52:57 10° 346° (NNW) 2,674 7.3 -41.1°
Sets 02:55:49 0° 358° (N) 3,624 8.0 -41.4°
